Volver al catálogo

STARLINK-37719

ActivoComunicacionesVLEO
NORAD 100013·PAYLOAD·🇺🇸 United States

Lanzado Jul 14, 2026 desde Vandenberg Space Force Base

Loading…

Próximos Pases (próximas 24 horas)

TLE

ActualizadoSource: Space-Track

Época: Sep 14, 2026, 21:09 UTC

1 A0013U 26160N   26257.88136775  .00468732  00000-0  26363-2 0  9998
2 A0013  70.0019 210.9681 0003890 255.3564 104.7205 15.77778365 11108

Sigue STARLINK-37719 en tiempo real con AllMySat

Download on the App Store